Flag Weather past 2 weeks in Syracuse, New York, U.S.A.

Now
37 °F

Overcast.


Feels Like: 32 °F
Forecast: 33 / 36 °F
Wind: 7 mph from West

Location: Syracuse Hancock International Airport

Current Time: Nov 26, 2014 at 5:14:51 AM

Latest Report: Nov 26, 2014 at 4:54 AM


Visibility: 10 mi

Pressure: 30.20 "Hg

Humidity: 60%

Dew point: 24 °F

Location of SyracuseLocation

Historic Weather in Syracuse — Graph

°F

Syracuse temperature yesterday

Maximum temperature yesterday: 49 °F (at 12:54 PM)
Minimum temperature yesterday: 38 °F (at 9:54 PM)
Average temperature yesterday: 44 °F

Past Weeks' High & Low Weather Summary

 TemperatureHumidityPressure
High72 °F (Nov 24, 1:54 PM)100% (Nov 17, 2:54 PM)30.45 "Hg (Nov 17, 2:54 PM)
Low20 °F (Nov 19, 6:54 AM)24% (Nov 22, 10:54 AM)29.31 "Hg (Nov 24, 2:54 PM)
Average38 °F65%29.98 "Hg
* Reported Nov 11 3:54 AM — Nov 26 3:54 AM, Syracuse, Weather by CustomWeather, © 2014

Note: Actual official high and low records may vary slightly from our data, if they occured in-between our weather recording intervals... More about our weather records

Advertising

Syracuse weather history for previous 24 hours

 ConditionsComfort  
Time TempWeatherWind HumidityBarometerVisibility
3:54 AM
Nov 26
37 °FOvercast.6 mph60%30.20 "Hg10 mi
2:54 AM37 °FOvercast.7 mph62%30.23 "Hg10 mi
1:54 AM37 °FOvercast.8 mph62%30.21 "Hg10 mi
12:54 AM37 °FOvercast.7 mph62%30.21 "Hg10 mi
11:54 PM
Nov 25
38 °FOvercast.8 mph60%30.21 "Hg10 mi
10:54 PM38 °FOvercast.13 mph65%30.18 "Hg10 mi
9:54 PM38 °FOvercast.15 mph70%30.17 "Hg10 mi
8:54 PM40 °FMostly cloudy.12 mph73%30.14 "Hg10 mi
7:54 PM42 °FOvercast.14 mph65%30.11 "Hg10 mi
6:54 PM44 °FMostly cloudy.10 mph49%30.05 "Hg10 mi
5:54 PM44 °FPassing clouds.12 mph49%30.02 "Hg10 mi
4:54 PM44 °FPassing clouds.12 mph49%30.00 "Hg10 mi
3:54 PM46 °FScattered clouds.9 mph50%29.95 "Hg10 mi
2:54 PM47 °FScattered clouds.9 mph48%29.93 "Hg10 mi
1:54 PM49 °FBroken clouds.12 mph44%29.92 "Hg10 mi
12:54 PM49 °FBroken clouds.15 mph43%29.91 "Hg10 mi
11:54 AM48 °FBroken clouds.10 mph44%29.92 "Hg10 mi
10:54 AM47 °FMore clouds than sun.17 mph46%29.92 "Hg10 mi
9:54 AM46 °FMore clouds than sun.20 mph46%29.91 "Hg10 mi
8:54 AM45 °FBroken clouds.18 mph49%29.89 "Hg10 mi
7:54 AM42 °FScattered clouds.8 mph57%29.88 "Hg10 mi
6:54 AM45 °FPassing clouds.9 mph58%29.85 "Hg10 mi
5:54 AM42 °FPassing clouds.10 mph62%29.81 "Hg10 mi
Weather by CustomWeather, © 2014

See weather overviewHow to use our weather pages